Hourly Data Report for December 10, 2004

TORONTO CITY
ONTARIO

43°40'00.000" N
79°24'00.000" W
112.50 m
6158355
71508
XTO

Download Data

Hourly Data (December 2004)
Hourly Data Report for December 10, 2004
TIME
LST
Temp Definition
°C
Dew Point Definition
°C
Rel Hum Definition
%
Precip. Amount Definition
mm

Wind Dir Definition
10's deg

Wind Spd Definition
km/h
Visibility Definition
km
Stn Press Definition
kPa
Hmdx Definition


Wind Chill Definition


Weather Definition


00:00 3.8 1.8 87   LegendMM LegendMM LegendMM 99.57     LegendNANA
01:00 3.6 1.6 87   LegendMM LegendMM LegendMM 99.52     LegendNANA
02:00 3.5 1.3 85   LegendMM LegendMM LegendMM 99.50     LegendNANA
03:00 3.2 1.2 87   LegendMM LegendMM LegendMM 99.46     LegendNANA
04:00 3.0 1.3 89   LegendMM LegendMM LegendMM 99.43     LegendNANA
05:00 2.7 1.4 91   LegendMM LegendMM LegendMM 99.35     LegendNANA
06:00 2.9 1.8 92   LegendMM LegendMM LegendMM 99.34     LegendNANA
07:00 3.1 1.8 91   LegendMM LegendMM LegendMM 99.34     LegendNANA
08:00 2.8 1.5 91   LegendMM LegendMM LegendMM 99.27     LegendNANA
09:00 2.7 1.3 90   LegendMM LegendMM LegendMM 99.22     LegendNANA
10:00 2.5 1.6 94   LegendMM LegendMM LegendMM 99.18     LegendNANA
11:00 2.3 1.6 95   LegendMM LegendMM LegendMM 99.05     LegendNANA
12:00 2.6 1.9 95   LegendMM LegendMM LegendMM 98.93     LegendNANA
13:00 2.7 2.1 96   LegendMM LegendMM LegendMM 98.83     LegendNANA
14:00 2.7 2.1 96   LegendMM LegendMM LegendMM 98.74     LegendNANA
15:00 2.8 2.3 97   LegendMM LegendMM LegendMM 98.66     LegendNANA
16:00 3.1 2.6 97   LegendMM LegendMM LegendMM 98.66     LegendNANA
17:00 3.0 2.5 97   LegendMM LegendMM LegendMM 98.60     LegendNANA
18:00 3.1 2.6 97   LegendMM LegendMM LegendMM 98.59     LegendNANA
19:00 3.1 2.6 97   LegendMM LegendMM LegendMM 98.56     LegendNANA
20:00 3.1 2.6 97   LegendMM LegendMM LegendMM 98.54     LegendNANA
21:00 3.0 2.5 97   LegendMM LegendMM LegendMM 98.50     LegendNANA
22:00 2.8 2.3 97   LegendMM LegendMM LegendMM 98.45     LegendNANA
23:00 2.7 2.1 96   LegendMM LegendMM LegendMM 98.40     LegendNANA

Notes on Data Quality.

Legend

  • E = Estimated
  • M = Missing
  • NA = Not Available*
  • [empty] = Indicates an unobserved value
Date modified: